Regional Weather Roundup
Issued by NWS Wakefield, VA

Home | Current Version | Previous Version | Graphics & Text | Print | Product List | Glossary On
Versions: 1 2 3 4 5 6 7 8 9 10 11 12 13 14 15 16 17 18 19 20 21 22 23 24 25 26 27 28 29 30 31 32 33 34 35 36 37 38 39 40 41 42 43 44 45 46 47 48 49 50
473
ASUS41 KAKQ 091815
RWRAKQ

REGIONAL WEATHER ROUNDUP
NATIONAL WEATHER SERVICE WAKEFIELD VA
100 PM EST FRI DEC 09 2016

Note: "fair" indicates few or no clouds below 12,000 feet with no
significant weather and/or obstructions to visibility. * = Denotes
station may not report precipitation (e.g., rain,snow,etc.),
thunder or fog.

VAZ042-051-052>054-056-091900-
NORTHERN VIRGINIA

CITY           SKY/WX    TMP DP  RH WIND       PRES   REMARKS
WASH NATIONAL  MOSUNNY   39  17  41 NW12G23   30.32F
DULLES         MOSUNNY   37  16  42 NW20G29   30.32F
FORT BELVOIR   SUNNY     39  15  38 W17       30.32S
QUANTICO       MOSUNNY   41  17  38 N20G26    30.35S
FREDERICKSBRG* SUNNY     40  17  40 NW15G23   30.33F
STAFFORD*      MOSUNNY   38  15  39 W10G23    30.37F
WARRENTON      SUNNY     40   7  25 NW10G21   30.33S
CULPEPER*      PTSUNNY   40  15  36 NW10G18   30.35S
MANASSAS*      NOT AVBL
LEESBURG*      SUNNY     37  23  56 NW20G30   30.32F
WINCHESTER     SUNNY     32  16  51 W20G30    30.32F WCI  20
FRONT ROYAL*   FAIR      34  16  47 NW5       30.32F
LURAY*         MOCLDY    36  18  48 NW8       30.32F
$$

VAZ048-049-060>072-079>083-091900-
CENTRAL AND SOUTH CENTRAL VIRGINIA

CITY           SKY/WX    TMP DP  RH WIND       PRES   REMARKS
RICHMOND       MOSUNNY   39  13  34 NW16G23   30.34F
CHESTERFIELD*  FAIR      41   7  24 NW16G22   30.37S
PETERSBURG*    SUNNY     39  11  31 NW12      30.36F
HANOVER        SUNNY     38  13  35 W8G24     30.35F
TAPPAHANNOCK*  SUNNY     40  10  28 N14       30.33S
QUINTON*       FAIR      39  14  36 NW12G18   30.34S
CHARLOTTSVILLE MOSUNNY   39  12  33 NW10      30.33F
GORDONSVILLE*  FAIR      38  12  33 W7G16     30.34S
ORANGE*          N/A     39  12  33 W12G22    30.35F
LOUISA*        MOSUNNY   43  18  36 NW8G16    30.33S
BUMPASS*       FAIR      39  12  33 N7G18     30.33F
FARMVILLE*     SUNNY     39  13  35 W8        30.36F
CREWE*         FAIR      38  13  37 NW8       30.36F
FORT PICKETT*  FAIR      38   4  23 NW9       30.36S
CHASE CITY*    FAIR      36  10  34 W6        30.37F
CLARKSVILLE*   FAIR      37  14  38 N10G16    30.37F
SOUTH HILL*    SUNNY     38  16  41 NW6       30.42F
LAWRENCEVILLE* FAIR      39  13  33 NW7       30.36S
EMPORIA*       SUNNY     37  14  38 W10G17    30.38S
$$

VAZ088>098-091900-
SOUTHEAST VIRGINIA

CITY           SKY/WX    TMP DP  RH WIND       PRES   REMARKS
NORFOLK        SUNNY     42  17  36 NW8       30.31F
VIRGINIA BEACH SUNNY     41  19  41 N17G23    30.30F
NORFOLK NAVAL  MOSUNNY   42  17  36 NW14G23   30.33F
WEST POINT*    SUNNY     41  13  32 NW8G20    30.35S
SALUDA*        FAIR      39  19  44 NW15      30.32S
NEWPORT NEWS   SUNNY     41  16  36 NW16G23   30.32F
LANGLEY AFB    SUNNY     41  17  38 NW18      30.31F
FORT EUSTIS    SUNNY     42  17  36 NW14      30.30F
WILLIAMSBURG*  SUNNY     45  19  36 N9G18     30.33F
HR EXEC AP*    FAIR      41  18  38 N9G18     30.32S
FRANKLIN*      SUNNY     40  16  38 NW14      30.35F
US460-WAKEFLD  SUNNY     40  14  34 NW7G21    30.34F
$$

VAZ020-022-025-037-045-091900-
WEST CENTRAL AND SOUTHWEST VIRGINIA

CITY           SKY/WX    TMP DP  RH WIND       PRES   REMARKS
STAUNTON*      MOSUNNY   32  10  40 W14       30.34F WCI  22
WAYNESBORO*    MOCLDY    34   9  34 NW10G18   30.31F
HOT SPRINGS VA CLOUDY    21   7  53 NW16G25   30.18S WCI   7
LYNCHBURG      SUNNY     36  12  37 W9        30.37F
DANVILLE       SUNNY     36  13  38 N10       30.39F
SOUTH BOSTON*  FAIR      37  10  32 W6G16     30.39F
MARTINSVILLE   SUNNY     35  12  38 NW13      30.40F
ROANOKE        MOSUNNY   34  12  40 NW15G23   30.40F WCI  24
BLACKSBURG     CLOUDY    29  13  51 NW13      30.38F WCI  19
DUBLIN*        CLOUDY    28  12  52 N8        30.35F
MARION*        FLURRIES  25  15  65 W10G16    30.36F WCI  15
HILLSVILLE*    SUNNY     25  11  57 NW15G21   30.28F WCI  12
RICHLANDS*     LGT SNOW  19  13  77 N8        30.37S
WISE*          LGT SNOW  21  14  73 CALM      30.39S
ABINGDON*      CLOUDY    28  12  53 N5        30.40F
$$

MDZ021>025-VAZ099-100-091900-
SOUTHERN MARYLAND AND THE DELMARVA PENINSULA

CITY           SKY/WX    TMP DP  RH WIND       PRES   REMARKS
PATUXENT RIVER MOSUNNY   40  18  41 NW21G28   30.28F
BAY BRIDGE APT SUNNY     37  18  44 NW18G29   30.28S
LEONARDTOWN    SUNNY     37  14  38 NW12G17   30.31S
DOVER          SUNNY     38  21  49 W20       30.22F
GEORGETOWN     SUNNY     38  18  44 NW12G24   30.26S
EASTON         SUNNY     39  16  38 NW17G31   30.31S
CAMBRIDGE      SUNNY     37  19  48 W15G23    30.28S
SALISBURY      SUNNY     38  19  46 NW18      30.26F
OCEAN CITY     SUNNY     38  20  48 NW13G23   30.25F
WALLOPS ISLAND SUNNY     40  21  46 NW12G20   30.28S
ACCOMACK*      MOSUNNY   39  21  48 NW16G23   30.29F
$$

NCZ012>017-030>032-091900-
NORTH CENTRAL AND EASTERN NORTH CAROLINA

CITY           SKY/WX    TMP DP  RH WIND       PRES   REMARKS
ROANOKE RAPIDS FAIR      39  19  45 N12       30.37S
RALEIGH        SUNNY     38  13  35 N9        30.38F
ELIZABETH CITY SUNNY     42  18  37 NW9       30.33S
AHOSKIE*       SUNNY     39  17  41 NW5       30.36F
EDENTON*       SUNNY     42  19  39 N8G18     30.34F
CURRITUCK*     SUNNY     41  18  40 NW7       30.32F
KILL DEVIL HLS SUNNY     40  23  50 NW7       30.30S
MANTEO         SUNNY     40  22  47 N9        30.32S
CAPE HATTERAS  SUNNY     43  23  45 N10       30.31S
TARBORO*       NOT AVBL
GOLDSBORO      SUNNY     42  16  35 NW8       30.35F
WASHINGTON     SUNNY     41  17  37 N10       30.35F
GREENVILLE     SUNNY     41  19  42 NW9       30.37S
NEW BERN       SUNNY     43  20  39 NW10G17   30.35F
WILMINGTON     SUNNY     44  20  38 N10G17    30.35F
$$

VAZ048-091900-
ELSEWHERE

CITY           SKY/WX    TMP DP  RH WIND       PRES   REMARKS
HARRISBURG PA  PTSUNNY   36  20  52 NW23G30   30.24S WCI  24
BALTIMORE      MOSUNNY   38  17  42 W15G23    30.27F
ANNAPOLIS      SUNNY     40  19  43 NW14G28   30.28F
ANDREWS AFB    MOSUNNY   37  15  40 W18       30.29S
PHILADELPHIA   PTSUNNY   38  18  44 W20       30.21F
HENDERSON NC   SUNNY     35  12  38 NW7       30.38F
GREENSBORO     MOSUNNY   38  16  40 VRB5      30.35F
ROCKY MOUNT    SUNNY     40  18  41 NW14G21   30.37F
$$

VAZ100-091900-
MARINE

STATION/POSITION TIME  TEMP    WIND        PRES    WAVE   SWELL
                       AIR SEA DIR/SP/G            HT/PER HT/PER
                 (UTC) (F)     (DEG/KT/KT) (MB)    (FT/S) (FT/S)
BRANDYWINE LGT   1748   36     330/ 15/ 18   N/A
CAPE MAY NJ      1748   37 42  310/ 18/ 24 1023.1F
LEWES DE         1748   36 45  310/ 18/ 21 1023.9F
OCEAN-CITY-INLET 1748   37 44  330/ 12/ 15 1024.7F
WACHAPREAGUE VA  1748   40 43  290/  4/ 11 1025.7F
THOMAS POINT MD  1800   37 46  320/ 20/ 24   N/A
GOOSES REEF MD   1750   39     300/ 21/ 25 1026.1F
COVE POINT MD    1748   36     340/ 18/ 25 1026.1F
SOLOMONS ISLAND  1748   38 49  320/ 15/ 22   N/A
BISHOPS HEAD MD  1748   38 39  310/ 19/ 25 1026.0F
PINEY POINT MD   1748          340/ 25/ 28   N/A
POTOMAC MD       1750   38     310/ 21/ 25 1025.3F
CAMBRIDGE MD     1748   37 44  290/ 13/ 20 1024.8S
LEWISETTA VA     1748   37 45  320/ 21/ 26 1026.1F
RAPPAHANNOCK LGT 1748          310/ 19/ 23 1026.5F
STINGRAY PT      1750   38     320/ 17/ 21 1026.7F
YORK RVR RNG VA  1748   38     320/ 16/ 20 1026.1F
YORKTOWN VA      1748   38 49  310/ 17/ 23 1026.4F
JAMESTOWN VA     1750   38     310/ 16/ 19   N/A
DOMINION TERM VA 1748   39     320/ 16/ 22 1026.5F
KIPTOPEKE VA     1748      48  330/ 16/ 19   N/A
CHES BAY BRIDGE  1748   38 50  320/ 14/ 18 1026.5F
CAPE HENRY VA    1748   37     300/ 15/ 20   N/A
WILLOUBY STN VA  1748   38     310/ 14/ 17 1027.3F
S CRANEY ISL VA  1748   39     320/ 12/ 19 1026.4F
CAPE HENRY BUOY  1742      53                N/A     5/ 4
1ST LANDING BUOY 1750   38                 1026.3F
CAPE CHARLES BUO 1756      52                N/A     4/ 5
OFFSHORE WE BUOY 1751      55                N/A     5/ 5
64NM E OF VA BCH 1750   40 58  330/ 17/ 23 1024.5F   6/ 7   2/11
DUCK PIER NC     1748   38 53  310/ 15/ 20 1025.8F
44100 DUCK FRF   1735      55                N/A     5/ 7
OREGON INLET NC  1742   39 53  310/ 13/ 17 1026.1F
HATTERAS NC      1748   39 54  320/ 13/ 19 1025.9F
DIAMOND SHLS NC  1750   42 76  340/ 17/ 21 1025.7F   5/ 8   3/ 8
CAPE LOOKOUT NC  1800   41     330/ 11/ 14 1026.7F
$$




USA.gov is the U.S. government's official web portal to all federal, state and local government web resources and services.